Regional Weather Roundup
Issued by NWS

Home | Current Version | Previous Version | Graphics & Text | Print | Product List | Glossary Off
Versions: 1 2 3 4 5 6 7 8 9 10 11 12 13 14 15 16 17 18 19 20 21 22 23 24 25 26 27 28 29 30 31 32 33 34 35 36 37 38 39 40 41 42 43 44 45 46 47 48 49 50

000
ASUS43 KDTX 021810
RWRMI
MICHIGAN HOURLY REGIONAL WEATHER ROUNDUP
NATIONAL WEATHER SERVICE DETROIT/PONTIAC MI
ISSUED BY NATIONAL WEATHER SERVICE GRAND RAPIDS MI
200 PM EDT WED SEP 02 2015

NOTE: "FAIR" INDICATES FEW OR NO CLOUDS BELOW 12,000 FEET WITH NO
SIGNIFICANT WEATHER AND/OR OBSTRUCTION TO VISIBILITY.

MIZ047>049-052>055-059>063-066>070-074>076-081>083-021900-
SOUTHEAST LOWER MICHIGAN

CITY           SKY/WX    TMP DP  RH WIND       PRES   REMARKS
ADRIAN         MOSUNNY   88  72  58 SW12      30.03F HX  94
6HR MIN TEMP:  67; 6HR MAX TEMP:  89; 6HR PCP:  0.01;

ALMA           PTSUNNY   86  76  72 SW9G16    30.00F HX  95
ANN ARBOR      SUNNY     84  72  67 SW7       30.02F
BAD AXE        MOSUNNY   84  73  67 SW9       29.99F HX  90
DETROIT CITY   SUNNY     86  71  60 S9        30.00F HX  91
6HR MIN TEMP:  73; 6HR MAX TEMP:  86;

DETROIT        PTSUNNY   86  72  62 SW8       30.01F HX  92
6HR MIN TEMP:  70; 6HR MAX TEMP:  86;

FLINT          PTSUNNY   89  73  59 SW12      30.00F HX  97
6HR MIN TEMP:  73; 6HR MAX TEMP:  90;

GROSSE ILE     SUNNY     82  73  74 S10       30.00F
HILLSDALE      MOSUNNY   87  71  59 W6        30.05F HX  93
HOWELL         MOSUNNY   88  72  58 W10       30.02F HX  94

CITY           SKY/WX    TMP DP  RH WIND       PRES   REMARKS
JACKSON        MOSUNNY   86  72  62 VRB7      30.03F HX  92
6HR MIN TEMP:  70; 6HR MAX TEMP:  86; 6HR PCP: TRACE;

LANSING        MOSUNNY   87  73  62 SW12      30.02F HX  94
6HR MIN TEMP:  72; 6HR MAX TEMP:  87;

MASON          MOSUNNY   86  70  58 W7        30.03S HX  91
6HR MIN TEMP:  70; 6HR MAX TEMP:  86;

MONROE         SUNNY     85  71  63 W8        30.02F HX  90
6HR MIN TEMP:  70; 6HR MAX TEMP:  85;

MT. CLEMENS    MOSUNNY   87  73  62 S10       29.98F HX  95
6HR MIN TEMP:  71; 6HR MAX TEMP:  87;

PONTIAC        MOSUNNY   86  71  60 SW8       30.00F HX  91
6HR MIN TEMP:  69; 6HR MAX TEMP:  88;

PORT HOPE        N/A     77  73  87 E7        29.97F
6HR MIN TEMP:  72; 6HR MAX TEMP:  84;

PORT HURON     SUNNY     86  72  62 S10       29.99F HX  92
TRI CITIES     MOSUNNY   86  74  67 SW8       29.99F HX  94
6HR MIN TEMP:  72; 6HR MAX TEMP:  87;

YPSILANTI      SUNNY     89  74  60 SW12      30.02F HX  98
6HR MIN TEMP:  72; 6HR MAX TEMP:  90;

$$
MIZ043>046-050>051-056>058-064>065-071>073-077>080-021900-
SOUTHWEST LOWER MICHIGAN

CITY           SKY/WX    TMP DP  RH WIND       PRES   REMARKS
BATTLE CREEK   MOSUNNY   88  70  55 W13       30.04F HX  93
6HR MIN TEMP:  71; 6HR MAX TEMP:  88;

BENTON HARBOR  MOSUNNY   84  70  62 W8        30.03F
6HR MIN TEMP:  71; 6HR MAX TEMP:  84;

BIG RAPIDS     PTSUNNY   86  73  65 W8        30.01S HX  92
6HR MIN TEMP:  70; 6HR MAX TEMP:  86;

COLDWATER      MOSUNNY   89  68  49 W7        30.04F HX  93
6HR MIN TEMP:  69; 6HR MAX TEMP:  90;

HOLLAND        SUNNY     84  71  65 SW12      30.03S
6HR MIN TEMP:  74; 6HR MAX TEMP:  84;

GRAND RAPIDS   MOSUNNY   87  73  62 W10       30.02S HX  94
6HR MIN TEMP:  73; 6HR MAX TEMP:  87;

KALAMAZOO      MOSUNNY   88  70  55 W6        30.03F HX  93
6HR MIN TEMP:  71; 6HR MAX TEMP:  88;

MARSHALL       MOSUNNY   88  71  56 W7        30.03F HX  93
MOUNT PLEASANT MOSUNNY   89  74  61 W6        29.99S HX  97
6HR MIN TEMP:  71; 6HR MAX TEMP:  90;

MUSKEGON       SUNNY     83  70  64 SW7       30.02S
6HR MIN TEMP:  74; 6HR MAX TEMP:  83;

STURGIS        SUNNY     86  73  66 W8        30.04F HX  93
$$
MIZ016>042-021900-
NORTHERN LOWER MICHIGAN

CITY           SKY/WX    TMP DP  RH WIND       PRES   REMARKS
ALPENA         PTSUNNY   86  73  65 E8        29.96F HX  93
6HR MIN TEMP:  71; 6HR MAX TEMP:  90;

BEAVER ISLAND  PTSUNNY   75  68  79 CALM      29.99F
6HR MIN TEMP:  68; 6HR MAX TEMP:  79;

BELLAIRE       MOSUNNY   87  72  61 NW3       29.97S HX  92
6HR MIN TEMP:  66; 6HR MAX TEMP:  87;

CADILLAC       PTSUNNY   86  73  64 SW10G16   30.02R HX  92
CHARLEVOIX     PTSUNNY   76  71  85 NW7       30.02R HAZE
GAYLORD        MOSUNNY   86  71  60 W8        30.00S HX  91
6HR MIN TEMP:  69; 6HR MAX TEMP:  86;

HOUGHTON LAKE  SUNNY     86  72  62 SW6       30.00S HX  92
6HR MIN TEMP:  70; 6HR MAX TEMP:  86;

MANISTEE       SUNNY     82  72  69 W7        29.99F
OSCODA         PTSUNNY   89  70  53 SW8       29.95F HX  95
6HR MIN TEMP:  69; 6HR MAX TEMP:  89;

PELLSTON       PTSUNNY   85  73  67 W7        29.98S HX  91
6HR MIN TEMP:  67; 6HR MAX TEMP:  85;

TRAVERSE CITY  PTSUNNY   89  72  56 W9        29.95F THUNDER HX  96
6HR MIN TEMP:  74; 6HR MAX TEMP:  90;

LUDINGTON      SUNNY     81  73  77 W7        30.00S
6HR MIN TEMP:  73; 6HR MAX TEMP:  81;

$$
MIZ007>008-015-021900-
EASTERN UPPER MICHIGAN

CITY           SKY/WX    TMP DP  RH WIND       PRES   REMARKS
KINROSS        CLOUDY    75  72  88 W3        29.99F
6HR MIN TEMP:  68; 6HR MAX TEMP:  75;

MACKINAC ISLAN MOSUNNY   78  71  78 N5        29.99S
6HR MIN TEMP:  65; 6HR MAX TEMP:  78;

NEWBERRY       CLOUDY    76  71  82 NW6       30.01R
6HR MIN TEMP:  64; 6HR MAX TEMP:  77;

S. S. MARIE    FAIR      79  71  76 W7        29.97F HAZE
6HR MIN TEMP:  69; 6HR MAX TEMP:  79;

$$
MIZ004>006-011>014-085-021900-
CENTRAL UPPER MICHIGAN

CITY           SKY/WX    TMP DP  RH WIND       PRES   REMARKS
MANISTIQUE     PTSUNNY   71  68  89 W3        30.00S
6HR MIN TEMP:  60; 6HR MAX TEMP:  77;

ESCANABA         N/A    N/A N/A N/A MISG        N/A
                                      6HR PCP:  0.07;

MENOMINEE      PTSUNNY   77  66  69 NE10G21   29.97R
6HR MIN TEMP:  68; 6HR MAX TEMP:  82;

$$
MIZ001>003-009>011-084-021900-
WESTERN UPPER MICHIGAN

CITY           SKY/WX    TMP DP  RH WIND       PRES   REMARKS
IRON MOUNTAIN  CLOUDY    75  67  76 NE7       30.00R
6HR MIN TEMP:  67; 6HR MAX TEMP:  75; 6HR PCP:  0.33;

HOUGHTON       LGT RAIN  68  64  87 CALM      30.01F
6HR MIN TEMP:  59; 6HR MAX TEMP:  68; 6HR PCP:  0.09;

COPPER HARBOR    N/A     66  61  84 N8        30.02F
6HR MIN TEMP:  60; 6HR MAX TEMP:  74;

IRONWOOD       CLOUDY    66  64  94 SE3       30.00S
6HR MIN TEMP:  66; 6HR MAX TEMP:  70;

$$

ABBREVIATIONS USED IN REMARKS
   TC - TEMPERATURE IN CELSIUS
  WCI - WIND CHILL INDEX
   HX - HEAT INDEX
  VSB - VISIBILITY




USA.gov is the U.S. government's official web portal to all federal, state and local government web resources and services.